Find NNS 30320-48

NORAD ID: 19071 Int'l Des: 1988-033 Owner: NAVAIR Country: US operational
LEORETROGRADE

リアルタイム位置

3D地球を読み込み中...

NNS 30320-48について

説明を読み込み中...

次回通過

Passes for default location (London). Set your location on the main map for personalized predictions.

高度履歴

Loading altitude history...

軌道要素

1 19071U 88033B 26104.49182954 .00000060 00000-0 10395-3 0 9992
2 19071 90.3330 20.3914 0187311 185.2371 349.5121 13.27972347838947
Epoch: Apr 14, 2026 • Age: 11 hours

現在のステータス

高度 1069.2 km
速度 7.37 km/s
衛星直下点 46.04°N, 20.78°E
打ち上げ日 Apr 26, 1988
運用期間 37.9 years
タイプ other

技術仕様

分類 Payload
質量 64.00 kg
乾燥質量 64.00 kg
総質量 64.00 kg
長さ 0.30 m
直径 0.50 m
スパン 30.00 m
形状 Oct Cyl + 4 Pan + Ant
製造者 GEEW
バスタイプ Transit 5
フェーズステータス In Orbit
所有者/国 NAVAIR/US

Most Searched